Skip Page Navigation
NASA JPL Caltech
NASA Logo - Jet Propulsion Laboratory + View the NASA Portal
+ Center for Near-Earth Object Studies
JPL Home Earth Solar System Stars & Galaxies Technology
JPL Solar System Dynamics
BODIES ORBITS EPHEMERIDES TOOLS PHYSICAL DATA DISCOVERY FAQ SITE MAP
IMPORTANT: The SSD Announcement email list is now available. Major changes are coming in the near future, including possible hostname and/or URL changes. To be notified of such changes, subscribe to this email list.

Please visit this page for more details.


JPL Small-Body Database Browser
Search: [ help ]  
266645 (2008 SS202)
Classification: Main-belt Asteroid          SPK-ID: 2266645
Ephemeris | Orbit Diagram | Orbital Elements | Mission Design | Physical Parameters | Discovery Circumstances | Close-Approach Data ]

[ show orbit diagram ]
Orbital Elements at Epoch 2458600.5 (2019-Apr-27.0) TDB
Reference: JPL 12 (heliocentric ecliptic J2000)
 Element Value Uncertainty (1-sigma)   Units 
e .1314296846230149 4.5508e-08  
a 3.097811974583194 3.1734e-08 au
q 2.690667523742326 1.4113e-07 au
i 3.547016384225923 5.3509e-06 deg
node 222.2064904147288 8.7667e-05 deg
peri 50.44922139681173 9.0158e-05 deg
M 84.45440659246573 2.1097e-05 deg
tp 2458133.302164382141
(2018-Jan-14.80216438)
0.00011624 TDB
period 1991.503198098771
5.45
3.0601e-05
8.378e-08
d
yr
n .1807679748361345 2.7777e-09 deg/d
Q 3.504956425424063 3.5905e-08 au
  Orbit Determination Parameters
   # obs. used (total)      213  
   data-arc span      6264 days (17.15 yr)  
   first obs. used      2002-09-11  
   last obs. used      2019-11-05  
   planetary ephem.      DE431  
   SB-pert. ephem.      SB431-N16  
   condition code      0  
   norm. resid. RMS      .55011  
   source      ORB  
   producer      Otto Matic  
   solution date      2019-Dec-04 19:34:19  

Additional Information
 Earth MOID = 1.67577 au 
 Jupiter MOID = 1.59698 au 
 T_jup = 3.207 
[ show covariance matrix ]

Ephemeris | Orbit Diagram | Orbital Elements | Mission Design | Physical Parameters | Discovery Circumstances | Close-Approach Data ]

Physical Parameter Table
Parameter Symbol Value Units Sigma Reference Notes
absolute magnitude H 16.0   n/a MPO454982  

266645 (2008 SS202)          Discovered 2008-Sep-26 by Spacewatch at Kitt Peak
Reference: 20110218/Numbers.arcLast Updated: 2011-02-22

[ show close-approach data ]
Alternate Designations
 2008 SS202 = 2002 TU318 
Ephemeris | Orbit Diagram | Orbital Elements | Mission Design | Physical Parameters | Discovery Circumstances | Close-Approach Data ]
ABOUT SSD CREDITS/AWARDS PRIVACY/COPYRIGHT GLOSSARY LINKS
FirstGov 2019-Dec-06 10:58 UT
(server date/time)  
NASA Home Page
Site Manager:   Ryan S. Park
Webmaster  Alan B. Chamberlin